Powrót do katalogu

CZ-6A R/B

AktywnyPO
NORAD 68661·ROCKET BODY·🇨🇳 China

Wystrzelony Apr 8, 2026 z Taiyuan Satellite Launch Center

Loading…

Następne Przeloty (najbliższe 24 godziny)

TLE

ŚwieżeSource: Space-Track

Epoka: Sep 14, 2026, 21:31 UTC

1 68661U 26076F   26257.89711885  .00000140  00000-0  67038-4 0  9990
2 68661  86.5140   6.5233 0104132 333.5211  26.0671 14.09409181 22419

Śledź CZ-6A R/B w czasie rzeczywistym z AllMySat

Download on the App Store